#timestamp,LO_Frequency,Hit,StdDev 
1551870015.3,286047001.9,N
1551870035.1,286047004.4,Y
1551870055.9,286047004.7,P
1551870075.7,286047004.8,P
1551870095.5,286047005.3,P
1551870115.4,286047003.8,N
1551870135.2,286047001.8,N
1551870155.1,286047004.0,N
1551870156.0,286047004.0,Y
1551870175.8,286046999.7,P
1551870195.6,286047001.9,N
1551870215.5,286047000.6,N
1551870235.3,286047000.7,N
1551870255.2,286046998.6,N
1551870275.9,286047000.4,N
1551870295.7,286046999.7,N
1551870315.6,286046998.1,N
1551870335.4,286046998.9,N
1551870355.2,286046998.9,N
1551870375.1,286046997.4,N
1551870376.0,286046997.4,N
1551870395.8,286046998.0,N
1551870415.7,286046995.4,N
1551870435.5,286046996.4,N
1551870455.3,286046996.0,N
1551870475.2,286046993.8,N
1551870495.0,286046993.9,N
1551870495.9,286046993.9,N
1551870515.7,286046993.8,N
1551870535.6,286046993.8,N
1551870555.4,286046993.3,N
1551870575.3,286046995.9,N
1551870595.1,286046996.4,N
1551870596.0,286046996.4,N
1551870615.8,286046993.8,N
1551870635.7,286046996.4,N
1551870655.5,286046996.3,N
1551870675.3,286046996.2,N
1551870695.2,286046996.2,N
1551870715.0,286046995.7,N
1551870715.9,286046995.7,N
1551870735.8,286046995.2,N
1551870755.6,286046995.8,N
1551870775.4,286046997.5,N
1551870795.3,286046998.0,N
1551870815.1,286046995.2,N
1551870835.9,286046995.4,N
1551870855.7,286046997.7,N
1551870875.5,286046997.1,N
1551870895.4,286046996.8,N
1551870915.2,286046996.6,N
1551870935.0,286046997.6,N
1551870935.9,286046997.6,N
1551870955.8,286046997.5,N
1551870975.6,286046996.5,N
1551870995.5,286046999.6,N
1551871015.3,286046997.3,N
1551871035.1,286046995.5,Y
1551871055.9,286047000.3,P
1551871075.7,286047000.0,N
1551871095.5,286046998.7,N
1551871115.4,286046998.5,N
1551871135.2,286046998.7,N
1551871155.1,286047000.7,N
1551871156.0,286047000.7,N
1551871175.8,286046998.7,N
1551871195.6,286046998.1,N
1551871215.5,286047000.8,N
1551871235.3,286046998.7,N
1551871255.1,286046998.2,N
1551871275.9,286046998.2,N
1551871295.7,286046998.3,N
1551871315.6,286046998.7,N
1551871335.4,286046999.3,N
1551871355.2,286046999.0,N
1551871375.1,286046998.5,N
1551871376.0,286046998.5,N
1551871395.8,286047000.8,N
1551871415.7,286047000.8,N
1551871435.5,286047000.9,N
1551871455.3,286047000.0,N
1551871475.2,286047000.3,N
1551871495.0,286047000.5,N
1551871525.9,286046999.7,E
1551871535.9,286047000.6,N
1551871555.7,286047000.6,P
1551871575.5,286046998.2,P
1551871595.4,286046998.5,N
1551871615.2,286046998.4,N
1551871635.1,286046998.8,N
1551871636.0,286046998.8,N
1551871655.8,286046998.7,N
1551871675.6,286047001.1,N
1551871695.5,286046998.3,N
1551871715.3,286046996.5,Y
1551871735.1,286046999.5,P
1551871755.9,286046999.4,P
1551871775.7,286046999.4,P
1551871795.6,286046996.7,Y
1551871815.4,286046996.5,P
1551871835.2,286046996.5,N
1551871855.1,286046998.7,N
1551871856.0,286046998.7,N
1551871875.8,286046999.5,N
1551871895.7,286046999.0,N
1551871915.5,286047001.2,N
1551871935.3,286046998.3,N
1551871955.2,286046999.1,N
1551871975.0,286047000.4,N
1551871975.9,286047000.4,N
1551871995.7,286047005.6,Y
1551872015.6,286047003.6,P
1551872035.4,286047003.7,N
1551872055.3,286047002.1,N
1551872075.1,286047002.8,N
1551872076.0,286047002.8,N
1551872095.8,286046998.6,N
1551872115.7,286047012.1,Y
1551872135.5,286047007.2,P
1551872155.4,286047001.4,N
1551872175.2,286046998.2,N
1551872195.0,286046997.5,N
1551872195.9,286046997.5,N
1551872215.8,286046995.9,N
1551872235.6,286046996.2,N
1551872255.5,286046993.3,N
1551872275.3,286046995.2,N
1551872295.1,286046993.9,N
1551872315.9,286046991.7,N
1551872335.7,286046993.0,N
1551872355.5,286046992.8,N
1551872375.4,286046993.1,N
1551872395.2,286046990.7,N
1551872415.1,286046991.6,N
1551872416.0,286046991.6,N
1551872435.8,286046990.2,N
1551872455.6,286046988.5,N
1551872475.5,286046991.1,N
1551872495.3,286046988.7,N
1551872515.1,286046988.5,N
1551872535.9,286046989.2,N
1551872555.7,286046989.4,N
1551872575.6,286046989.3,N
1551872595.4,286046987.4,N
1551872615.2,286046986.0,Y
1551872635.1,286046992.1,P
1551872636.0,286046992.1,P
1551872655.8,286046993.2,P
1551872675.7,286046992.6,Y
1551872695.5,286047001.0,P
1551872715.3,286047001.0,N
1551872735.2,286046998.6,N
1551872755.0,286047001.2,N
1551872755.9,286047001.2,N
1551872775.8,286047001.3,N
1551872795.6,286047003.4,N
1551872815.4,286047006.8,N
1551872835.3,286047008.6,N
1551872855.1,286047008.8,N
1551872875.8,286047006.8,N
1551872895.7,286047006.8,N
1551872915.5,286047002.9,N
1551872935.4,286047003.9,N
1551872955.2,286047002.1,N
1551872975.0,286047002.8,N
1551872975.9,286047002.8,N
1551872995.8,286047000.2,N
1551873015.6,286046999.9,N
1551873035.4,286047000.5,N
1551873055.3,286046996.9,N
1551873075.1,286046997.2,N
1551873095.9,286046998.0,N
1551873115.7,286046995.0,N
1551873135.5,286046995.5,N
1551873155.4,286046996.2,N
1551873175.2,286046996.1,N
1551873195.0,286046997.5,N
1551873196.0,286046997.5,N
1551873215.8,286046995.0,N
1551873235.6,286046997.4,N
1551873255.5,286046995.0,N
1551873275.3,286046997.2,N
1551873295.1,286046997.9,N
1551873315.9,286046995.6,N
1551873335.7,286046993.4,N
1551873355.6,286046993.9,N
1551873375.4,286046993.4,N
1551873395.2,286046995.8,N
1551873415.1,286046995.8,N
1551873416.0,286046995.8,N
1551873435.8,286046993.6,N
1551873455.6,286046993.8,N
1551873475.5,286046986.3,Y
1551873495.3,286046996.7,P
1551873515.2,286047004.2,P
1551873535.9,286047003.9,N
1551873555.7,286047004.0,N
1551873575.6,286047002.6,N
1551873595.4,286047001.5,N
